When you browse on this site, cookies collect data to enhance your experience and personalize the content and advertising you see.
Visit our Privacy Policy to learn more. By continuing to use the site, you agree to this use of cookies and data.
  • In Hungary
  • List of Countries
  • For 7 days
  • Water Temperature
  • Satellite Maps
  • Weather Map
  • News
  • Weather Widgets
  • user-avatar
    Login

    Hourly Weather Zwettl

    Today, 19 March, Tuesday

    Time Temperature Precipitation Wind Pressure Humidity
    00:00 -1°C° 0 mm 2 mps 717 mmHg 83%
    01:00 -1°C° 0 mm 2 mps 718 mmHg 87%
    02:00 -1°C° 0 mm 2 mps 718 mmHg 88%
    03:00 -2°C° 0 mm 2 mps 717 mmHg 89%
    04:00 -2°C° 0 mm 2 mps 717 mmHg 90%
    05:00 -1°C° 0 mm 2 mps 718 mmHg 88%
    06:00 -1°C° 0 mm 2 mps 718 mmHg 87%
    07:00 +1°C° 0 mm 2 mps 719 mmHg 84%
    08:00 +2°C° 0 mm 2 mps 719 mmHg 75%
    09:00 +4°C° 0 mm 2 mps 719 mmHg 66%
    10:00 +5°C° 0 mm 2 mps 719 mmHg 57%
    11:00 +6°C° 0.1 mm 2 mps 719 mmHg 54%
    12:00 +6°C° 0.1 mm 2 mps 719 mmHg 51%
    13:00 +6°C° 0 mm 2 mps 720 mmHg 51%
    14:00 +6°C° 0.1 mm 2 mps 720 mmHg 51%
    15:00 +5°C° 0.1 mm 3 mps 720 mmHg 51%
    16:00 +5°C° 0.1 mm 3 mps 720 mmHg 51%
    17:00 +4°C° 0 mm 2 mps 720 mmHg 56%
    18:00 +3°C° 0 mm 2 mps 721 mmHg 62%
    19:00 +3°C° 0 mm 1 mps 721 mmHg 68%
    20:00 +2°C° 0 mm 1 mps 721 mmHg 70%
    21:00 +2°C° 0 mm 1 mps 722 mmHg 72%
    22:00 +1°C° 0 mm 1 mps 722 mmHg 73%
    23:00 +1°C° 0 mm 1 mps 722 mmHg 74%

    Tomorrow, 20 March, Wednesday

    Time Temperature Precipitation Wind Pressure Humidity
    00:00 +1°C° 0 mm 1 mps 723 mmHg 75%
    01:00 0°C° 0 mm 1 mps 723 mmHg 76%
    02:00 0°C° 0 mm 1 mps 723 mmHg 77%
    03:00 0°C° 0 mm 1 mps 723 mmHg 78%
    04:00 0°C° 0 mm 1 mps 724 mmHg 79%
    05:00 0°C° 0 mm 1 mps 724 mmHg 78%
    06:00 +1°C° 0 mm 1 mps 724 mmHg 77%
    07:00 +1°C° 0 mm 1 mps 725 mmHg 76%
    08:00 +3°C° 0 mm 1 mps 725 mmHg 67%
    09:00 +4°C° 0 mm 2 mps 725 mmHg 59%
    10:00 +5°C° 0 mm 2 mps 726 mmHg 50%
    11:00 +6°C° 0 mm 2 mps 726 mmHg 48%
    12:00 +6°C° 0 mm 2 mps 726 mmHg 47%
    13:00 +8°C° 0 mm 1 mps 726 mmHg 45%
    14:00 +8°C° 0 mm 1 mps 726 mmHg 46%
    15:00 +8°C° 0 mm 1 mps 726 mmHg 47%
    16:00 +8°C° 0 mm 1 mps 725 mmHg 48%
    17:00 +6°C° 0 mm 1 mps 725 mmHg 56%
    18:00 +4°C° 0 mm 1 mps 726 mmHg 63%
    19:00 +3°C° 0 mm 1 mps 726 mmHg 71%
    20:00 +2°C° 0 mm 1 mps 726 mmHg 72%
    21:00 +2°C° 0 mm 1 mps 726 mmHg 73%
    22:00 +2°C° 0 mm 1 mps 726 mmHg 75%
    23:00 +1°C° 0 mm 1 mps 727 mmHg 75%

    Day after tomorrow, 21 March, Thursday

    Time Temperature Precipitation Wind Pressure Humidity
    00:00 +1°C° 0 mm 1 mps 727 mmHg 75%
    01:00 +1°C° 0 mm 1 mps 727 mmHg 76%
    02:00 +1°C° 0 mm 1 mps 727 mmHg 76%
    03:00 +1°C° 0 mm 1 mps 727 mmHg 76%
    04:00 +1°C° 0 mm 1 mps 727 mmHg 76%
    05:00 0°C° 0 mm 0 mps 727 mmHg 74%
    06:00 +1°C° 0 mm 0 mps 727 mmHg 73%
    07:00 +1°C° 0 mm 0 mps 727 mmHg 71%
    08:00 +4°C° 0 mm 1 mps 727 mmHg 63%
    09:00 +7°C° 0 mm 1 mps 727 mmHg 55%
    10:00 +9°C° 0 mm 1 mps 728 mmHg 46%
    11:00 +10°C° 0 mm 1 mps 727 mmHg 44%
    12:00 +10°C° 0 mm 2 mps 727 mmHg 42%
    13:00 +12°C° 0 mm 2 mps 727 mmHg 39%
    14:00 +10°C° 0 mm 2 mps 726 mmHg 40%
    15:00 +10°C° 0 mm 2 mps 726 mmHg 42%
    16:00 +10°C° 0 mm 2 mps 725 mmHg 43%
    17:00 +8°C° 0 mm 2 mps 725 mmHg 50%
    18:00 +6°C° 0 mm 2 mps 725 mmHg 57%
    19:00 +5°C° 0 mm 1 mps 725 mmHg 63%
    20:00 +5°C° 0 mm 1 mps 725 mmHg 64%
    21:00 +5°C° 0 mm 1 mps 725 mmHg 64%
    22:00 +4°C° 0 mm 1 mps 725 mmHg 65%
    23:00 +4°C° 0 mm 1 mps 725 mmHg 66%

    22 March, Friday

    Time Temperature Precipitation Wind Pressure Humidity
    00:00 +4°C° 0 mm 1 mps 725 mmHg 67%
    01:00 +4°C° 0 mm 1 mps 725 mmHg 68%
    02:00 +3°C° 0 mm 1 mps 725 mmHg 69%
    03:00 +3°C° 0 mm 1 mps 724 mmHg 71%
    04:00 +2°C° 0 mm 2 mps 724 mmHg 72%
    05:00 +2°C° 0 mm 2 mps 724 mmHg 71%
    06:00 +2°C° 0 mm 2 mps 724 mmHg 71%
    07:00 +3°C° 0 mm 2 mps 724 mmHg 70%
    08:00 +5°C° 0 mm 2 mps 724 mmHg 63%
    09:00 +7°C° 0 mm 3 mps 724 mmHg 55%
    10:00 +8°C° 0 mm 4 mps 724 mmHg 47%
    11:00 +10°C° 0 mm 4 mps 724 mmHg 45%
    12:00 +11°C° 0 mm 4 mps 723 mmHg 43%
    13:00 +13°C° 0 mm 4 mps 723 mmHg 41%
    14:00 +12°C° 0 mm 4 mps 723 mmHg 42%
    15:00 +12°C° 0 mm 4 mps 722 mmHg 43%
    16:00 +12°C° 0 mm 4 mps 722 mmHg 44%
    17:00 +10°C° 0 mm 3 mps 722 mmHg 50%
    18:00 +8°C° 0 mm 3 mps 722 mmHg 57%
    19:00 +6°C° 0 mm 2 mps 722 mmHg 63%
    20:00 +6°C° 0 mm 2 mps 722 mmHg 65%
    21:00 +5°C° 0 mm 2 mps 722 mmHg 67%
    22:00 +6°C° 0 mm 1 mps 722 mmHg 69%
    23:00 +5°C° 0 mm 1 mps 722 mmHg 70%

    23 March, Saturday

    Time Temperature Precipitation Wind Pressure Humidity
    00:00 +5°C° 0 mm 1 mps 722 mmHg 71%
    01:00 +5°C° 0 mm 1 mps 721 mmHg 72%
    02:00 +4°C° 0 mm 1 mps 721 mmHg 73%
    03:00 +4°C° 0 mm 1 mps 721 mmHg 74%
    04:00 +4°C° 0 mm 1 mps 721 mmHg 74%
    05:00 +4°C° 0 mm 1 mps 721 mmHg 73%
    06:00 +4°C° 0 mm 1 mps 721 mmHg 72%
    07:00 +5°C° 0 mm 1 mps 721 mmHg 71%
    08:00 +7°C° 0 mm 1 mps 721 mmHg 63%
    09:00 +10°C° 0 mm 1 mps 722 mmHg 55%
    10:00 +13°C° 0 mm 1 mps 722 mmHg 47%
    11:00 +14°C° 0 mm 1 mps 722 mmHg 44%
    12:00 +16°C° 0 mm 1 mps 721 mmHg 41%
    13:00 +18°C° 0 mm 1 mps 721 mmHg 38%
    14:00 +18°C° 0 mm 1 mps 721 mmHg 39%
    15:00 +18°C° 0 mm 1 mps 720 mmHg 40%
    16:00 +18°C° 0 mm 1 mps 720 mmHg 41%
    17:00 +14°C° 0 mm 1 mps 720 mmHg 49%
    18:00 +12°C° 0 mm 1 mps 720 mmHg 57%
    19:00 +10°C° 0 mm 1 mps 720 mmHg 66%
    20:00 +9°C° 0 mm 1 mps 720 mmHg 68%
    21:00 +9°C° 0 mm 1 mps 720 mmHg 70%
    22:00 +8°C° 0 mm 1 mps 720 mmHg 72%
    23:00 +8°C° 0 mm 1 mps 720 mmHg 73%

    24 March, Sunday

    Time Temperature Precipitation Wind Pressure Humidity
    00:00 +7°C° 0 mm 1 mps 719 mmHg 74%
    01:00 +7°C° 0 mm 1 mps 719 mmHg 76%
    02:00 +7°C° 0 mm 1 mps 719 mmHg 77%
    03:00 +7°C° 0 mm 1 mps 719 mmHg 78%
    04:00 +6°C° 0 mm 1 mps 718 mmHg 79%
    05:00 +6°C° 0 mm 1 mps 719 mmHg 78%
    06:00 +7°C° 0 mm 1 mps 719 mmHg 77%
    07:00 +7°C° 0 mm 1 mps 719 mmHg 77%
    08:00 +9°C° 0 mm 1 mps 719 mmHg 68%
    09:00 +12°C° 0 mm 1 mps 719 mmHg 60%
    10:00 +14°C° 0 mm 2 mps 719 mmHg 51%
    11:00 +15°C° 0 mm 2 mps 719 mmHg 49%
    12:00 +16°C° 0 mm 2 mps 718 mmHg 46%
    13:00 +17°C° 0 mm 2 mps 718 mmHg 43%
    14:00 +17°C° 0 mm 3 mps 718 mmHg 45%
    15:00 +17°C° 0 mm 3 mps 717 mmHg 46%
    16:00 +17°C° 0 mm 3 mps 717 mmHg 47%
    17:00 +14°C° 0 mm 3 mps 717 mmHg 56%
    18:00 +12°C° 0 mm 3 mps 717 mmHg 64%
    19:00 +10°C° 0 mm 2 mps 717 mmHg 73%
    20:00 +9°C° 0 mm 3 mps 717 mmHg 75%
    21:00 +9°C° 0 mm 3 mps 717 mmHg 78%
    22:00 +8°C° 0 mm 3 mps 718 mmHg 80%
    23:00 +8°C° 0 mm 3 mps 717 mmHg 82%
    Show more